{"data":{"norad_id":52837,"intl_designator":"2022-062H","name":"STARLINK-4036","alt_names":[],"object_type":"PAYLOAD","status":"ACTIVE","operator":null,"country":"US","launch_date":"2022-06-17","launch_site_code":"AFETR","launch_vehicle":null,"mission":null,"orbit_class":"UNKNOWN","rcs_meters":null,"size_class":null,"mass_kg":null,"dimensions":null,"purposes":["comms"],"wikipedia_slug":null,"has_3d_model":false,"image_url":null,"decayed_at":null,"tle_current":{"epoch":"2026-05-25T02:54:33.961824Z","epoch_age_seconds":78755,"freshness":"FRESH","line1":"1 52837U 22062H   26145.12122641 -.00000371  00000+0 -51986-5 0  9990","line2":"2 52837  53.2133  51.0054 0001865  92.3231 267.7974 15.08844401217321","mean_motion":15.08844401,"eccentricity":0.0001865,"inclination_deg":53.2133,"raan_deg":51.0054,"arg_perigee_deg":92.3231,"mean_anomaly_deg":267.7974,"bstar":-5.1986e-6,"rev_number":21732,"period_min":95.437276305339,"perigee_km":538.43975471672,"apogee_km":541.02011908418,"semimajor_km":6917.8669369004,"source":"CELESTRAK","updated_at":"2026-05-25T13:38:17.241808Z"}}}